Weather History for Falfurrias, TX

Change the Weather History Date:

Thursday, October 11, 2012

  Actual Average (KNQI) Record (KNQI)
Temperature  
Mean Temperature 80 °F -  
Max Temperature 91 °F 81 °F 95 °F (2013)
Min Temperature 70 °F 63 °F 55 °F (2000)
Cooling Degree Days 16    
Growing Degree Days 30 (Base 50)    
Moisture  
Dew Point 69 °F    
Average Humidity 75    
Maximum Humidity 93    
Minimum Humidity 43    
Precipitation  
Precipitation 0.00 in - - ()
Sea Level Pressure  
Sea Level Pressure 30.04 in    
Wind  
Wind Speed 6 mph (SE)    
Max Wind Speed 16 mph    
Max Gust Speed 25 mph    
Visibility 8 miles    
Events      
Averages and records for this station are not official NWS values.
T = Trace of Precipitation, MM = Missing Value Source: NWS Daily Summary

Daily Weather History Graph

Daily Weather History Graph

Search for Another Location

Airport:

Trip Planner

Search our weather history database for the weather conditions in past years. The results will help you decide how hot, cold, wet, or windy it might be!

Date:

Astronomy

Oct. 11, 2012 Rise Set
Actual Time 7:30 AM CDT 7:07 PM CDT
Civil Twilight 7:07 AM CDT 7:30 PM CDT
Nautical Twilight 6:39 AM CDT 7:57 PM CDT
Astronomical Twilight 6:12 AM CDT 8:24 PM CDT
Moon 3:31 AM CDT (10/11) 4:26 PM CDT (10/11)
Length of Visible Light 12h 23m
Length of Day
11h 36m
Waning Crescent, 18% of the Moon is Illuminated
Oct 11
Waning Crescent
Oct 15
New
Oct 21
First Quarter
Oct 29
Full
Nov 6
Last Quarter

Hourly Weather History & Observations

Time (CDT) Temp. Heat Index Dew Point Humidity Pressure Visibility Wind Dir Wind Speed Gust Speed Precip Events Conditions
12:15 AM 75.6 °F - 71.1 °F 86% 30.03 in 10.0 mi SE 5.8 mph - N/A   Clear
12:35 AM 75.2 °F - 71.1 °F 87% 30.03 in 10.0 mi SE 5.8 mph - N/A   Clear
12:55 AM 75.2 °F - 71.1 °F 87% 30.03 in 10.0 mi SSE 5.8 mph - N/A   Clear
1:15 AM 74.7 °F - 71.1 °F 88% 30.03 in 10.0 mi SE 4.6 mph - N/A   Clear
1:35 AM 74.3 °F - 70.9 °F 89% 30.03 in 10.0 mi SE 4.6 mph - N/A   Clear
1:55 AM 73.9 °F - 70.7 °F 90% 30.02 in 10.0 mi SE 3.5 mph - N/A   Clear
2:15 AM 73.4 °F - 70.3 °F 90% 30.02 in 10.0 mi ESE 3.5 mph - N/A   Clear
2:35 AM 73.0 °F - 70.2 °F 91% 30.03 in 10.0 mi Calm Calm - N/A   Clear
2:55 AM 72.7 °F - 70.0 °F 91% 30.03 in 10.0 mi Calm Calm - N/A   Clear
3:15 AM 72.5 °F - 69.8 °F 91% 30.02 in 10.0 mi Calm Calm - N/A   Clear
3:35 AM 71.8 °F - 69.3 °F 92% 30.02 in 7.0 mi Calm Calm - N/A   Clear
3:55 AM 71.8 °F - 69.4 °F 92% 30.02 in 7.0 mi Calm Calm - N/A   Clear
4:15 AM 71.6 °F - 69.3 °F 92% 30.01 in 5.0 mi Calm Calm - N/A   Clear
4:35 AM 71.1 °F - 68.9 °F 93% 30.01 in 2.0 mi Calm Calm - N/A   Scattered Clouds
4:55 AM 70.9 °F - 68.9 °F 93% 30.01 in 4.0 mi Calm Calm - N/A   Scattered Clouds
5:15 AM 70.7 °F - 68.5 °F 93% 30.01 in 4.0 mi Calm Calm - N/A   Clear
5:35 AM 70.9 °F - 68.9 °F 93% 30.01 in 5.0 mi Calm Calm - N/A   Clear
6:15 AM 70.3 °F - 68.4 °F 93% 30.02 in 4.0 mi Calm Calm - N/A   Clear
6:35 AM 70.7 °F - 68.5 °F 93% 30.02 in 5.0 mi Calm Calm - N/A   Clear
6:55 AM 70.3 °F - 68.4 °F 93% 30.03 in 5.0 mi Calm Calm - N/A   Clear
7:15 AM 70.7 °F - 68.5 °F 93% 30.04 in 5.0 mi Calm Calm - N/A   Clear
7:35 AM 70.7 °F - 68.5 °F 93% 30.05 in 5.0 mi Calm Calm - N/A   Clear
7:55 AM 70.7 °F - 68.5 °F 93% 30.05 in 3.0 mi Calm Calm - N/A   Clear
8:15 AM 71.1 °F - 69.1 °F 93% 30.05 in 3.0 mi Calm Calm - N/A   Clear
8:35 AM 72.1 °F - 70.2 °F 93% 30.06 in 5.0 mi ESE 4.6 mph - N/A   Scattered Clouds
8:55 AM 73.4 °F - 71.1 °F 92% 30.06 in 10.0 mi ESE 5.8 mph - N/A   Clear
9:15 AM 74.5 °F - 71.8 °F 91% 30.07 in 10.0 mi SE 6.9 mph - N/A   Clear
9:55 AM 79.5 °F - 72.0 °F 78% 30.08 in 7.0 mi SE 10.4 mph - N/A   Clear
10:15 AM 81.3 °F 85.6 °F 71.6 °F 72% 30.09 in 7.0 mi SSE 15.0 mph 19.6 mph N/A   Scattered Clouds
10:35 AM 82.0 °F 85.9 °F 70.2 °F 67% 30.09 in 7.0 mi SE 15.0 mph 20.7 mph N/A   Scattered Clouds
10:55 AM 83.3 °F 87.4 °F 69.8 °F 64% 30.09 in 7.0 mi ESE 13.8 mph 17.3 mph N/A   Mostly Cloudy
11:15 AM 83.7 °F 87.5 °F 69.4 °F 62% 30.09 in 10.0 mi SE 12.7 mph - N/A   Mostly Cloudy
11:35 AM 83.7 °F 87.2 °F 68.9 °F 61% 30.09 in 5.0 mi SE 13.8 mph - N/A   Mostly Cloudy
11:55 AM 84.7 °F 87.9 °F 68.2 °F 57% 30.09 in 10.0 mi SSE 13.8 mph - N/A   Scattered Clouds
12:35 PM 87.8 °F 90.4 °F 66.6 °F 49% 30.07 in 7.0 mi SSE 15.0 mph 18.4 mph N/A   Mostly Cloudy
12:55 PM 88.5 °F 90.8 °F 65.7 °F 47% 30.06 in 10.0 mi South 13.8 mph 18.4 mph N/A   Scattered Clouds
1:15 PM 90.0 °F 92.0 °F 65.7 °F 44% 30.05 in 10.0 mi SSE 13.8 mph 19.6 mph N/A   Scattered Clouds
1:35 PM 89.1 °F 91.7 °F 66.6 °F 47% 30.04 in 10.0 mi ESE 11.5 mph 19.6 mph N/A   Scattered Clouds
1:55 PM 90.1 °F 93.1 °F 66.7 °F 46% 30.03 in 10.0 mi ESE 9.2 mph 20.7 mph N/A   Scattered Clouds
2:15 PM 89.2 °F 92.0 °F 66.4 °F 47% 30.02 in 10.0 mi ESE 11.5 mph - N/A   Mostly Cloudy
2:35 PM 90.3 °F 92.6 °F 65.7 °F 44% 30.01 in 10.0 mi ESE 12.7 mph 20.7 mph N/A   Mostly Cloudy
2:55 PM 91.2 °F 93.7 °F 65.7 °F 43% 30.01 in 10.0 mi ESE 15.0 mph 21.9 mph N/A   Mostly Cloudy
3:35 PM 87.3 °F 90.2 °F 67.3 °F 51% 30.01 in 10.0 mi SE 15.0 mph 20.7 mph N/A   Overcast
3:55 PM 86.9 °F 90.3 °F 67.8 °F 53% 30.00 in 10.0 mi ESE 11.5 mph 18.4 mph N/A   Overcast
4:35 PM 86.5 °F 90.0 °F 68.0 °F 54% 30.00 in 10.0 mi ESE 16.1 mph 24.2 mph N/A   Overcast
4:55 PM 86.9 °F 90.3 °F 67.8 °F 53% 30.00 in 10.0 mi ESE 10.4 mph 25.3 mph N/A   Overcast
5:15 PM 86.9 °F 90.6 °F 68.2 °F 54% 30.00 in 10.0 mi ESE 16.1 mph 23.0 mph N/A   Mostly Cloudy
5:35 PM 86.5 °F 90.0 °F 68.0 °F 54% 30.00 in 10.0 mi ESE 16.1 mph 21.9 mph N/A   Scattered Clouds
5:55 PM 86.5 °F 89.6 °F 67.6 °F 53% 30.00 in 10.0 mi ESE 15.0 mph 19.6 mph N/A   Clear
6:15 PM 85.8 °F 89.1 °F 68.0 °F 55% 30.01 in 10.0 mi ESE 11.5 mph - N/A   Clear
6:35 PM 84.6 °F 87.9 °F 68.2 °F 58% 30.01 in 10.0 mi ESE 13.8 mph 23.0 mph N/A   Clear
6:55 PM 83.5 °F 86.7 °F 68.4 °F 60% 30.01 in 10.0 mi ESE 11.5 mph 19.6 mph N/A   Clear
7:15 PM 82.4 °F 86.1 °F 69.4 °F 65% 30.02 in 10.0 mi ESE 12.7 mph 20.7 mph N/A   Clear
7:55 PM 80.6 °F 83.9 °F 69.8 °F 70% 30.03 in 10.0 mi ESE 12.7 mph 18.4 mph N/A   Scattered Clouds
8:15 PM 79.9 °F - 69.8 °F 71% 30.03 in 10.0 mi ESE 10.4 mph - N/A   Clear
8:35 PM 79.0 °F - 70.2 °F 74% 30.04 in 10.0 mi ESE 8.1 mph - N/A   Mostly Cloudy
8:55 PM 78.8 °F - 70.3 °F 75% 30.05 in 10.0 mi ESE 8.1 mph - N/A   Scattered Clouds
9:15 PM 77.9 °F - 70.2 °F 77% 30.05 in 10.0 mi ESE 6.9 mph - N/A   Clear
9:35 PM 77.0 °F - 70.2 °F 79% 30.06 in 10.0 mi ESE 5.8 mph - N/A   Clear
9:55 PM 76.3 °F - 70.0 °F 81% 30.07 in 10.0 mi ESE 5.8 mph - N/A   Clear
10:15 PM 75.7 °F - 70.3 °F 83% 30.07 in 10.0 mi ESE 5.8 mph - N/A   Clear
10:35 PM 75.6 °F - 70.2 °F 83% 30.08 in 10.0 mi ESE 5.8 mph - N/A   Clear
11:15 PM 75.0 °F - 69.8 °F 84% 30.08 in 10.0 mi ESE 6.9 mph - N/A   Clear
11:35 PM 74.5 °F - 69.8 °F 85% 30.08 in 10.0 mi ESE 5.8 mph - N/A   Clear
11:55 PM 74.3 °F - 69.4 °F 85% 30.08 in 10.0 mi ESE 5.8 mph - N/A   Clear